Time,TemperatureF,DewpointF,PressureIn,WindDirection,WindDirectionDegrees,WindSpeedMPH,WindSpeedGustMPH,Humidity,HourlyPrecipIn,Conditions,Clouds,dailyrainin,SoftwareType,DateUTC
2013-08-08 00:01:00,69.8,65.5,30.07,ESE,120,3.7,3.7,86,0.00,-RA,,0.00,WeatherDisplay:10.37,2013-08-08 04:01:00,
2013-08-08 00:02:00,69.9,65.6,30.07,ENE,75,4.6,4.6,86,0.00,-RA,,0.00,WeatherDisplay:10.37,2013-08-08 04:02:00,
2013-08-08 00:03:00,70.0,66.0,30.07,NNE,23,4.6,4.6,87,0.00,OVC,,0.00,WeatherDisplay:10.37,2013-08-08 04:03:00,
2013-08-08 00:06:00,69.9,65.9,30.07,SSE,167,1.2,1.2,87,0.00,OVC,,0.00,WeatherDisplay:10.37,2013-08-08 04:06:00,
2013-08-08 00:11:00,70.0,66.0,30.07,SSE,167,2.3,2.3,87,0.00,OVC,,0.00,WeatherDisplay:10.37,2013-08-08 04:11:00,
2013-08-08 00:16:00,69.9,65.9,30.07,SSW,203,4.6,4.6,87,0.00,OVC,,0.00,WeatherDisplay:10.37,2013-08-08 04:16:00,
2013-08-08 00:17:00,69.8,65.8,30.07,South,178,8.3,8.3,87,0.00,OVC,,0.00,WeatherDisplay:10.37,2013-08-08 04:17:00,
2013-08-08 00:22:00,70.0,66.0,30.06,ESE,114,3.5,3.5,87,0.00,OVC,,0.00,WeatherDisplay:10.37,2013-08-08 04:22:00,
2013-08-08 00:27:00,69.8,65.8,30.06,NE,51,3.5,3.5,87,0.00,OVC,,0.00,WeatherDisplay:10.37,2013-08-08 04:27:00,
2013-08-08 00:32:00,69.9,65.9,30.06,SSE,148,5.0,5.0,87,0.00,OVC,,0.00,WeatherDisplay:10.37,2013-08-08 04:32:00,
2013-08-08 00:37:00,70.2,66.2,30.06,West,265,4.6,4.6,87,0.00,OVC,,0.00,WeatherDisplay:10.37,2013-08-08 04:37:00,
2013-08-08 00:42:00,70.1,66.1,30.06,SSW,196,6.8,6.8,87,0.00,OVC,,0.00,WeatherDisplay:10.37,2013-08-08 04:42:00,
2013-08-08 00:47:00,69.9,65.9,30.06,WSW,253,2.3,2.3,87,0.00,OVC,,0.00,WeatherDisplay:10.37,2013-08-08 04:47:00,
2013-08-08 00:52:00,70.0,66.0,30.06,ESE,106,4.6,4.6,87,0.00,OVC,,0.00,WeatherDisplay:10.37,2013-08-08 04:52:00,
2013-08-08 00:57:00,70.0,66.0,30.06,SW,233,4.6,4.6,87,0.00,OVC,,0.00,WeatherDisplay:10.37,2013-08-08 04:57:00,
2013-08-08 01:02:00,70.1,66.1,30.06,South,172,4.0,4.0,87,0.00,OVC,,0.00,WeatherDisplay:10.37,2013-08-08 05:02:00,
2013-08-08 01:07:00,70.1,66.1,30.06,SE,143,4.6,4.6,87,0.00,OVC,,0.00,WeatherDisplay:10.37,2013-08-08 05:07:00,
2013-08-08 01:12:00,70.2,66.5,30.06,SSE,168,6.3,6.3,88,0.00,OVC,,0.00,WeatherDisplay:10.37,2013-08-08 05:12:00,
2013-08-08 01:17:00,69.9,66.2,30.06,SE,143,0.0,0.0,88,0.00,OVC,,0.00,WeatherDisplay:10.37,2013-08-08 05:17:00,
2013-08-08 01:22:00,70.2,66.5,30.06,SE,144,2.5,2.5,88,0.00,OVC,,0.00,WeatherDisplay:10.37,2013-08-08 05:22:00,
2013-08-08 01:27:00,70.1,66.4,30.06,SSE,165,4.6,4.6,88,0.00,OVC,,0.00,WeatherDisplay:10.37,2013-08-08 05:27:00,
2013-08-08 01:32:00,69.8,66.1,30.05,SSE,151,5.0,5.0,88,0.00,OVC,,0.00,WeatherDisplay:10.37,2013-08-08 05:32:00,
2013-08-08 01:37:00,69.9,66.2,30.05,South,181,5.4,5.4,88,0.00,OVC,,0.00,WeatherDisplay:10.37,2013-08-08 05:37:00,
2013-08-08 01:42:00,69.9,66.2,30.05,SSE,155,1.2,0.0,88,0.00,OVC,,0.00,WeatherDisplay:10.37,2013-08-08 05:42:00,
2013-08-08 01:47:00,70.1,66.4,30.05,South,191,3.9,3.9,88,0.00,OVC,,0.00,WeatherDisplay:10.37,2013-08-08 05:47:00,
2013-08-08 01:52:00,70.1,66.4,30.05,ENE,61,4.6,4.6,88,0.00,OVC,,0.00,WeatherDisplay:10.37,2013-08-08 05:52:00,
2013-08-08 01:57:00,70.0,66.3,30.05,WSW,254,3.0,3.0,88,0.00,OVC,,0.00,WeatherDisplay:10.37,2013-08-08 05:57:00,
2013-08-08 02:02:00,69.9,66.5,30.05,East,96,3.5,3.5,89,0.00,OVC,,0.00,WeatherDisplay:10.37,2013-08-08 06:02:00,
2013-08-08 02:07:00,70.0,66.6,30.05,SW,232,3.4,3.4,89,0.00,-RA,,0.00,WeatherDisplay:10.37,2013-08-08 06:07:00,
2013-08-08 02:12:00,69.8,66.4,30.05,SSW,209,8.4,8.4,89,0.00,-RA,,0.00,WeatherDisplay:10.37,2013-08-08 06:12:00,
2013-08-08 02:18:00,69.7,66.7,30.05,SSE,160,6.9,6.9,90,0.00,-RA,,0.00,WeatherDisplay:10.37,2013-08-08 06:18:00,
2013-08-08 02:23:00,69.8,66.8,30.04,SSW,213,3.5,3.5,90,0.00,-RA,,0.00,WeatherDisplay:10.37,2013-08-08 06:23:00,
2013-08-08 02:28:00,69.6,66.6,30.04,East,95,6.9,6.9,90,0.00,-RA,,0.00,WeatherDisplay:10.37,2013-08-08 06:28:00,
2013-08-08 02:33:00,69.8,66.8,30.04,SE,144,0.0,0.0,90,0.00,-RA,,0.00,WeatherDisplay:10.37,2013-08-08 06:33:00,
2013-08-08 02:38:00,69.7,66.7,30.04,SE,128,2.3,2.3,90,0.00,-RA,,0.00,WeatherDisplay:10.37,2013-08-08 06:38:00,
2013-08-08 02:43:00,69.6,66.6,30.05,South,182,5.8,5.8,90,0.00,-RA,,0.00,WeatherDisplay:10.37,2013-08-08 06:43:00,
2013-08-08 02:48:00,69.6,66.9,30.05,South,188,3.5,3.5,91,0.00,-RA,,0.00,WeatherDisplay:10.37,2013-08-08 06:48:00,
2013-08-08 02:53:00,69.7,67.0,30.05,South,188,4.6,4.6,91,0.00,-RA,,0.00,WeatherDisplay:10.37,2013-08-08 06:53:00,
2013-08-08 02:58:00,69.7,67.0,30.04,WSW,237,6.9,6.9,91,0.00,-RA,,0.00,WeatherDisplay:10.37,2013-08-08 06:58:00,
2013-08-08 03:03:00,69.7,67.0,30.04,SSE,152,10.4,10.4,91,0.00,-RA,,0.00,WeatherDisplay:10.37,2013-08-08 07:03:00,
2013-08-08 03:08:00,69.6,66.9,30.04,South,182,5.8,5.8,91,0.00,-RA,,0.00,WeatherDisplay:10.37,2013-08-08 07:08:00,
2013-08-08 03:13:00,69.5,66.8,30.04,SE,127,4.0,4.0,91,0.00,-RA,,0.00,WeatherDisplay:10.37,2013-08-08 07:13:00,
2013-08-08 03:18:00,69.5,66.8,30.04,South,182,0.0,0.0,91,0.00,OVC,,0.00,WeatherDisplay:10.37,2013-08-08 07:18:00,
2013-08-08 03:23:00,69.5,66.8,30.04,NW,313,4.6,4.6,91,0.00,OVC,,0.00,WeatherDisplay:10.37,2013-08-08 07:23:00,
2013-08-08 03:28:00,69.6,66.9,30.04,NNE,30,1.2,1.2,91,0.00,OVC,,0.00,WeatherDisplay:10.37,2013-08-08 07:28:00,
2013-08-08 03:33:00,69.7,67.0,30.04,SW,216,0.0,0.0,91,0.00,OVC,,0.00,WeatherDisplay:10.37,2013-08-08 07:33:00,
2013-08-08 03:38:00,69.8,67.1,30.04,South,184,1.2,0.0,91,0.00,OVC,,0.00,WeatherDisplay:10.37,2013-08-08 07:38:00,
2013-08-08 03:43:00,69.9,67.2,30.04,SSW,200,5.8,5.8,91,0.00,OVC,,0.00,WeatherDisplay:10.37,2013-08-08 07:43:00,
2013-08-08 03:48:00,69.7,67.0,30.05,South,175,0.0,0.0,91,0.00,OVC,,0.00,WeatherDisplay:10.37,2013-08-08 07:48:00,
2013-08-08 03:53:00,69.8,67.1,30.04,ESE,110,2.3,2.3,91,0.00,OVC,,0.00,WeatherDisplay:10.37,2013-08-08 07:53:00,
2013-08-08 03:58:00,69.8,67.1,30.04,SSW,205,2.3,2.3,91,0.00,OVC,,0.00,WeatherDisplay:10.37,2013-08-08 07:58:00,
2013-08-08 04:03:00,69.7,67.0,30.04,SSW,208,3.5,3.5,91,0.00,OVC,,0.00,WeatherDisplay:10.37,2013-08-08 08:03:00,
2013-08-08 04:08:00,69.9,67.2,30.04,SSE,157,3.5,3.5,91,0.00,OVC,,0.00,WeatherDisplay:10.37,2013-08-08 08:08:00,
2013-08-08 04:13:00,69.6,66.9,30.04,SW,236,5.8,5.8,91,0.00,OVC,,0.00,WeatherDisplay:10.37,2013-08-08 08:13:00,
2013-08-08 04:18:00,69.8,67.1,30.04,WNW,299,5.8,5.8,91,0.00,OVC,,0.00,WeatherDisplay:10.37,2013-08-08 08:18:00,
2013-08-08 04:23:00,69.9,67.2,30.04,West,265,7.1,7.1,91,0.00,OVC,,0.00,WeatherDisplay:10.37,2013-08-08 08:23:00,
2013-08-08 04:28:00,69.9,67.2,30.04,SSW,192,0.0,0.0,91,0.00,OVC,,0.00,WeatherDisplay:10.37,2013-08-08 08:28:00,
2013-08-08 04:33:00,69.9,67.2,30.04,SSW,192,0.0,0.0,91,0.00,OVC,,0.00,WeatherDisplay:10.37,2013-08-08 08:33:00,
2013-08-08 04:38:00,70.0,67.3,30.03,SSW,205,6.0,6.0,91,0.00,OVC,,0.00,WeatherDisplay:10.37,2013-08-08 08:38:00,
2013-08-08 04:43:00,69.8,67.1,30.03,South,181,5.0,5.0,91,0.00,OVC,,0.00,WeatherDisplay:10.37,2013-08-08 08:43:00,
2013-08-08 04:48:00,69.9,67.2,30.03,South,181,3.5,3.5,91,0.00,OVC,,0.00,WeatherDisplay:10.37,2013-08-08 08:48:00,
2013-08-08 04:53:00,69.7,67.0,30.03,South,181,0.0,0.0,91,0.00,OVC,,0.00,WeatherDisplay:10.37,2013-08-08 08:53:00,
2013-08-08 04:58:00,69.7,67.0,30.03,South,185,0.0,0.0,91,0.00,OVC,,0.00,WeatherDisplay:10.37,2013-08-08 08:58:00,
2013-08-08 05:03:00,69.7,67.3,30.03,South,181,0.0,0.0,92,0.00,OVC,,0.00,WeatherDisplay:10.37,2013-08-08 09:03:00,
2013-08-08 05:08:00,69.8,67.4,30.03,SSW,206,0.0,0.0,92,0.00,OVC,,0.00,WeatherDisplay:10.37,2013-08-08 09:08:00,
2013-08-08 05:13:00,69.9,67.5,30.03,West,275,5.2,5.2,92,0.00,OVC,,0.00,WeatherDisplay:10.37,2013-08-08 09:13:00,
2013-08-08 05:18:00,69.7,67.3,30.03,SW,219,5.8,5.8,92,0.00,OVC,,0.00,WeatherDisplay:10.37,2013-08-08 09:18:00,
2013-08-08 05:23:00,69.6,67.2,30.03,SSW,195,6.0,6.0,92,0.00,OVC,,0.00,WeatherDisplay:10.37,2013-08-08 09:23:00,
2013-08-08 05:28:00,69.5,67.1,30.03,SSW,196,3.5,3.5,92,0.00,OVC,,0.00,WeatherDisplay:10.37,2013-08-08 09:28:00,
2013-08-08 05:33:00,69.6,67.2,30.03,SSW,196,5.8,5.8,92,0.00,OVC,,0.00,WeatherDisplay:10.37,2013-08-08 09:33:00,
2013-08-08 05:38:00,69.7,67.3,30.03,SW,219,2.4,2.4,92,0.00,OVC,,0.00,WeatherDisplay:10.37,2013-08-08 09:38:00,
2013-08-08 05:43:00,69.6,67.2,30.04,WSW,248,4.6,4.6,92,0.00,OVC,,0.00,WeatherDisplay:10.37,2013-08-08 09:43:00,
2013-08-08 05:48:00,69.8,67.4,30.04,SSW,193,5.8,5.8,92,0.00,OVC,,0.00,WeatherDisplay:10.37,2013-08-08 09:48:00,
2013-08-08 05:53:00,69.7,67.3,30.04,WSW,253,4.4,4.4,92,0.00,OVC,,0.00,WeatherDisplay:10.37,2013-08-08 09:53:00,
2013-08-08 05:58:00,69.5,67.1,30.04,SW,234,6.8,6.8,92,0.00,OVC,,0.00,WeatherDisplay:10.37,2013-08-08 09:58:00,
2013-08-08 06:03:00,69.6,67.2,30.04,WNW,294,6.0,6.0,92,0.00,OVC,,0.00,WeatherDisplay:10.37,2013-08-08 10:03:00,
2013-08-08 06:08:00,69.4,67.0,30.04,WSW,244,5.9,5.9,92,0.00,OVC,,0.00,WeatherDisplay:10.37,2013-08-08 10:08:00,
2013-08-08 06:13:00,69.5,67.1,30.04,SSW,195,4.7,4.7,92,0.00,OVC,,0.00,WeatherDisplay:10.37,2013-08-08 10:13:00,
2013-08-08 06:18:00,69.6,67.2,30.04,SW,234,4.6,0.0,92,0.00,OVC,,0.00,WeatherDisplay:10.37,2013-08-08 10:18:00,
2013-08-08 06:23:00,69.6,67.2,30.04,SW,234,0.0,0.0,92,0.00,OVC,,0.00,WeatherDisplay:10.37,2013-08-08 10:23:00,
2013-08-08 06:28:00,69.4,67.0,30.04,South,171,3.5,3.5,92,0.00,OVC,,0.00,WeatherDisplay:10.37,2013-08-08 10:28:00,
2013-08-08 06:33:00,69.6,67.2,30.04,SW,216,2.3,0.0,92,0.00,OVC,,0.00,WeatherDisplay:10.37,2013-08-08 10:33:00,
2013-08-08 06:38:00,69.7,67.3,30.04,West,261,6.9,6.9,92,0.00,OVC,,0.00,WeatherDisplay:10.37,2013-08-08 10:38:00,
2013-08-08 06:43:00,69.6,67.2,30.05,NW,323,0.0,0.0,92,0.00,OVC,,0.00,WeatherDisplay:10.37,2013-08-08 10:43:00,
2013-08-08 06:48:00,69.9,67.5,30.05,West,274,7.9,7.9,92,0.00,OVC,,0.00,WeatherDisplay:10.37,2013-08-08 10:48:00,
2013-08-08 06:53:00,69.8,67.4,30.05,WNW,292,5.9,5.9,92,0.00,OVC,,0.00,WeatherDisplay:10.37,2013-08-08 10:53:00,
2013-08-08 06:58:00,69.8,67.1,30.05,SSW,196,8.1,8.1,91,0.00,OVC,,0.00,WeatherDisplay:10.37,2013-08-08 10:58:00,
2013-08-08 07:03:00,69.7,67.3,30.05,WNW,299,6.9,6.9,92,0.00,OVC,,0.00,WeatherDisplay:10.37,2013-08-08 11:03:00,
2013-08-08 07:08:00,69.7,67.3,30.05,West,277,2.3,0.0,92,0.00,OVC,,0.00,WeatherDisplay:10.37,2013-08-08 11:08:00,
2013-08-08 07:13:00,69.7,67.3,30.05,West,275,3.5,3.5,92,0.00,OVC,,0.00,WeatherDisplay:10.37,2013-08-08 11:13:00,
2013-08-08 07:18:00,69.5,67.1,30.05,SW,223,0.0,0.0,92,0.00,OVC,,0.00,WeatherDisplay:10.37,2013-08-08 11:18:00,
2013-08-08 07:23:00,69.8,67.4,30.05,South,182,2.3,2.3,92,0.00,OVC,,0.00,WeatherDisplay:10.37,2013-08-08 11:23:00,
2013-08-08 07:28:00,69.8,67.4,30.04,South,186,2.5,2.5,92,0.00,OVC,,0.00,WeatherDisplay:10.37,2013-08-08 11:28:00,
2013-08-08 07:33:00,69.4,67.0,30.04,SW,234,2.3,2.3,92,0.00,OVC,,0.00,WeatherDisplay:10.37,2013-08-08 11:33:00,
2013-08-08 07:38:00,69.6,67.2,30.04,SW,225,1.0,5.0,92,0.00,OVC,,0.00,WeatherDisplay:10.37,2013-08-08 11:38:00,
2013-08-08 07:43:00,69.7,67.3,30.04,SW,214,1.0,5.0,92,0.00,OVC,,0.00,WeatherDisplay:10.37,2013-08-08 11:43:00,
2013-08-08 07:49:00,69.8,67.4,30.04,WSW,246,2.0,2.0,92,0.00,OVC,,0.00,WeatherDisplay:10.37,2013-08-08 11:49:00,
2013-08-08 07:54:00,69.8,67.4,30.04,West,267,3.5,3.5,92,0.00,OVC,,0.00,WeatherDisplay:10.37,2013-08-08 11:54:00,
2013-08-08 07:59:00,69.7,67.3,30.05,SSE,157,0.0,0.0,92,0.00,OVC,,0.00,WeatherDisplay:10.37,2013-08-08 11:59:00,
2013-08-08 08:04:00,69.7,67.3,30.05,South,175,1.2,0.0,92,0.00,OVC,,0.00,WeatherDisplay:10.37,2013-08-08 12:04:00,
2013-08-08 08:09:00,69.9,67.8,30.05,SW,220,3.7,3.7,93,0.00,OVC,,0.00,WeatherDisplay:10.37,2013-08-08 12:09:00,
2013-08-08 08:14:00,69.9,67.8,30.05,SW,224,0.0,0.0,93,0.00,OVC,,0.00,WeatherDisplay:10.37,2013-08-08 12:14:00,
2013-08-08 08:19:00,70.0,67.9,30.05,SSW,200,1.2,0.0,93,0.00,OVC,,0.00,WeatherDisplay:10.37,2013-08-08 12:19:00,
2013-08-08 08:24:00,69.9,67.8,30.05,SSW,200,0.0,0.0,93,0.00,OVC,,0.00,WeatherDisplay:10.37,2013-08-08 12:24:00,
2013-08-08 08:29:00,70.0,67.9,30.05,WNW,295,2.3,2.3,93,0.00,OVC,,0.00,WeatherDisplay:10.37,2013-08-08 12:29:00,
2013-08-08 08:34:00,69.9,67.8,30.05,WNW,295,0.0,0.0,93,0.00,OVC,,0.00,WeatherDisplay:10.37,2013-08-08 12:34:00,
2013-08-08 08:39:00,70.0,67.9,30.05,SW,229,1.2,0.0,93,0.00,OVC,,0.00,WeatherDisplay:10.37,2013-08-08 12:39:00,
2013-08-08 08:44:00,70.3,68.2,30.05,WSW,237,1.2,1.2,93,0.00,OVC,,0.00,WeatherDisplay:10.37,2013-08-08 12:44:00,
2013-08-08 08:49:00,70.1,68.0,30.05,WSW,237,0.0,0.0,93,0.00,OVC,,0.00,WeatherDisplay:10.37,2013-08-08 12:49:00,
2013-08-08 08:54:00,70.3,68.2,30.05,West,271,4.5,4.5,93,0.00,OVC,,0.00,WeatherDisplay:10.37,2013-08-08 12:54:00,
2013-08-08 08:59:00,70.1,68.0,30.05,West,271,1.2,0.0,93,0.00,OVC,,0.00,WeatherDisplay:10.37,2013-08-08 12:59:00,
2013-08-08 09:04:00,70.5,68.4,30.05,WNW,296,2.3,2.3,93,0.00,OVC,,0.00,WeatherDisplay:10.37,2013-08-08 13:04:00,
2013-08-08 09:09:00,70.4,68.3,30.05,WSW,257,1.4,1.4,93,0.00,OVC,,0.00,WeatherDisplay:10.37,2013-08-08 13:09:00,
2013-08-08 09:14:00,70.4,68.3,30.06,WSW,258,3.5,3.5,93,0.00,OVC,,0.00,WeatherDisplay:10.37,2013-08-08 13:14:00,
2013-08-08 09:19:00,70.1,68.0,30.06,South,172,4.6,4.6,93,0.00,OVC,,0.00,WeatherDisplay:10.37,2013-08-08 13:19:00,
2013-08-08 09:24:00,70.4,68.3,30.06,WSW,250,3.5,3.5,93,0.00,OVC,,0.00,WeatherDisplay:10.37,2013-08-08 13:24:00,
2013-08-08 09:29:00,70.5,68.4,30.05,WSW,247,0.0,0.0,93,0.00,OVC,,0.00,WeatherDisplay:10.37,2013-08-08 13:29:00,
2013-08-08 09:34:00,70.7,68.6,30.05,West,277,3.5,3.5,93,0.00,OVC,,0.00,WeatherDisplay:10.37,2013-08-08 13:34:00,
2013-08-08 09:39:00,71.0,68.9,30.05,West,277,0.0,0.0,93,0.00,OVC,,0.00,WeatherDisplay:10.37,2013-08-08 13:39:00,
2013-08-08 09:44:00,71.1,68.7,30.05,SE,143,2.8,2.8,92,0.00,OVC,,0.00,WeatherDisplay:10.37,2013-08-08 13:44:00,
2013-08-08 09:49:00,71.1,68.7,30.05,SSE,152,2.4,2.4,92,0.00,OVC,,0.00,WeatherDisplay:10.37,2013-08-08 13:49:00,
2013-08-08 09:54:00,71.1,68.7,30.05,SSE,152,0.0,0.0,92,0.00,OVC,,0.00,WeatherDisplay:10.37,2013-08-08 13:54:00,
2013-08-08 09:59:00,71.4,69.0,30.05,West,267,3.5,3.5,92,0.00,OVC,,0.00,WeatherDisplay:10.37,2013-08-08 13:59:00,
2013-08-08 10:04:00,71.6,69.2,30.05,WSW,258,5.2,5.2,92,0.00,OVC,,0.00,WeatherDisplay:10.37,2013-08-08 14:04:00,
2013-08-08 10:09:00,71.6,68.9,30.05,South,186,4.6,4.6,91,0.00,OVC,,0.00,WeatherDisplay:10.37,2013-08-08 14:09:00,
2013-08-08 10:14:00,71.9,69.2,30.05,SSW,196,4.6,4.6,91,0.00,OVC,,0.00,WeatherDisplay:10.37,2013-08-08 14:14:00,
2013-08-08 10:19:00,72.0,69.3,30.05,South,189,4.6,4.6,91,0.00,OVC,,0.00,WeatherDisplay:10.37,2013-08-08 14:19:00,
2013-08-08 10:24:00,72.4,69.7,30.04,SSE,152,5.7,5.7,91,0.00,OVC,,0.00,WeatherDisplay:10.37,2013-08-08 14:24:00,
2013-08-08 10:29:00,72.3,69.2,30.04,WSW,244,2.8,2.8,90,0.00,OVC,,0.00,WeatherDisplay:10.37,2013-08-08 14:29:00,
2013-08-08 10:34:00,72.5,69.4,30.04,ENE,69,2.3,2.3,90,0.00,OVC,,0.00,WeatherDisplay:10.37,2013-08-08 14:34:00,
2013-08-08 10:39:00,72.7,69.6,30.04,ENE,75,3.5,3.5,90,0.00,OVC,,0.00,WeatherDisplay:10.37,2013-08-08 14:39:00,
2013-08-08 10:44:00,72.9,69.8,30.04,WSW,251,3.5,3.5,90,0.00,OVC,,0.00,WeatherDisplay:10.37,2013-08-08 14:44:00,
2013-08-08 10:49:00,72.8,69.1,30.04,WSW,258,4.5,4.5,88,0.00,OVC,,0.00,WeatherDisplay:10.37,2013-08-08 14:49:00,
2013-08-08 10:54:00,73.0,69.3,30.04,West,265,3.5,3.5,88,0.00,OVC,,0.00,WeatherDisplay:10.37,2013-08-08 14:54:00,
2013-08-08 10:59:00,73.1,69.7,30.04,West,263,3.5,3.5,89,0.00,OVC,,0.00,WeatherDisplay:10.37,2013-08-08 14:59:00,
2013-08-08 11:04:00,73.4,69.3,30.04,SW,219,5.5,5.5,87,0.00,OVC,,0.00,WeatherDisplay:10.37,2013-08-08 15:04:00,
2013-08-08 11:09:00,73.5,69.4,30.04,SSW,210,6.9,6.9,87,0.00,OVC,,0.00,WeatherDisplay:10.37,2013-08-08 15:09:00,
2013-08-08 11:14:00,73.4,69.0,30.04,SW,215,4.6,4.6,86,0.00,OVC,,0.00,WeatherDisplay:10.37,2013-08-08 15:14:00,
2013-08-08 11:19:00,73.8,69.7,30.03,ENE,64,3.5,3.5,87,0.00,OVC,,0.00,WeatherDisplay:10.37,2013-08-08 15:19:00,
2013-08-08 11:24:00,74.5,69.7,30.03,SSE,158,3.5,3.5,85,0.00,OVC,,0.00,WeatherDisplay:10.37,2013-08-08 15:24:00,
2013-08-08 11:29:00,75.0,69.9,30.03,WNW,282,3.8,3.8,84,0.00,OVC,,0.00,WeatherDisplay:10.37,2013-08-08 15:29:00,
2013-08-08 11:35:00,75.4,70.3,30.03,ESE,109,3.5,3.5,84,0.00,OVC,,0.00,WeatherDisplay:10.37,2013-08-08 15:35:00,
2013-08-08 11:40:00,75.8,69.6,30.03,ESE,113,3.5,3.5,81,0.00,OVC,,0.00,WeatherDisplay:10.37,2013-08-08 15:40:00,
2013-08-08 11:45:00,76.2,70.0,30.03,WNW,291,3.7,3.7,81,0.00,OVC,,0.00,WeatherDisplay:10.37,2013-08-08 15:45:00,
2013-08-08 11:50:00,76.4,69.8,30.03,West,270,6.9,6.9,80,0.00,OVC,,0.00,WeatherDisplay:10.37,2013-08-08 15:50:00,
2013-08-08 11:55:00,76.3,69.7,30.03,West,270,2.3,2.3,80,0.00,OVC,,0.00,WeatherDisplay:10.37,2013-08-08 15:55:00,
2013-08-08 12:01:00,76.5,69.5,30.03,SSW,202,6.9,6.9,79,0.00,OVC,,0.00,WeatherDisplay:10.37,2013-08-08 16:01:00,
2013-08-08 12:06:00,76.5,69.9,30.03,South,181,4.6,4.6,80,0.00,OVC,,0.00,WeatherDisplay:10.37,2013-08-08 16:06:00,
2013-08-08 12:11:00,76.9,70.3,30.03,WNW,295,9.2,9.2,80,0.00,OVC,,0.00,WeatherDisplay:10.37,2013-08-08 16:11:00,
2013-08-08 12:16:00,77.5,69.8,30.03,SW,226,8.1,8.1,77,0.00,OVC,,0.00,WeatherDisplay:10.37,2013-08-08 16:16:00,
2013-08-08 12:22:00,78.2,70.1,30.03,WSW,250,5.8,5.8,76,0.00,OVC,,0.00,WeatherDisplay:10.37,2013-08-08 16:22:00,
2013-08-08 12:27:00,78.4,69.5,30.03,WNW,301,4.6,4.6,74,0.00,OVC,,0.00,WeatherDisplay:10.37,2013-08-08 16:27:00,
2013-08-08 12:32:00,78.7,69.4,30.02,SSW,202,3.5,3.5,73,0.00,OVC,,0.00,WeatherDisplay:10.37,2013-08-08 16:32:00,
2013-08-08 12:37:00,79.2,69.4,30.02,South,188,7.0,7.0,72,0.00,OVC,,0.00,WeatherDisplay:10.37,2013-08-08 16:37:00,
2013-08-08 12:42:00,79.2,69.0,30.02,SE,144,6.9,6.9,71,0.00,OVC,,0.00,WeatherDisplay:10.37,2013-08-08 16:42:00,
2013-08-08 12:47:00,79.7,70.3,30.02,SW,222,4.8,4.8,73,0.00,OVC,,0.00,WeatherDisplay:10.37,2013-08-08 16:47:00,
2013-08-08 12:52:00,80.2,70.4,30.02,NW,304,6.9,6.9,72,0.00,OVC,,0.00,WeatherDisplay:10.37,2013-08-08 16:52:00,
2013-08-08 12:57:00,80.4,68.9,30.02,SW,224,5.1,5.1,68,0.00,OVC,,0.00,WeatherDisplay:10.37,2013-08-08 16:57:00,
2013-08-08 13:02:00,80.5,69.4,30.02,SW,219,10.8,10.8,69,0.00,OVC,,0.00,WeatherDisplay:10.37,2013-08-08 17:02:00,
2013-08-08 13:07:00,80.0,68.1,30.02,West,260,9.8,9.8,67,0.00,OVC,,0.00,WeatherDisplay:10.37,2013-08-08 17:07:00,
2013-08-08 13:12:00,80.0,69.0,30.02,WSW,247,5.8,5.8,69,0.00,OVC,,0.00,WeatherDisplay:10.37,2013-08-08 17:12:00,
2013-08-08 13:17:00,80.5,69.4,30.01,South,169,8.0,8.0,69,0.00,OVC,,0.00,WeatherDisplay:10.37,2013-08-08 17:17:00,
2013-08-08 13:22:00,80.2,69.6,30.01,WNW,292,10.8,10.8,70,0.00,OVC,,0.00,WeatherDisplay:10.37,2013-08-08 17:22:00,
2013-08-08 13:27:00,80.0,69.0,30.01,West,261,12.7,12.7,69,0.00,OVC,,0.00,WeatherDisplay:10.37,2013-08-08 17:27:00,
2013-08-08 13:32:00,79.9,68.4,30.01,West,261,10.4,10.4,68,0.00,OVC,,0.00,WeatherDisplay:10.37,2013-08-08 17:32:00,
2013-08-08 13:37:00,80.2,69.1,30.01,WSW,248,8.1,8.1,69,0.00,OVC,,0.00,WeatherDisplay:10.37,2013-08-08 17:37:00,
2013-08-08 13:42:00,80.2,68.7,30.01,SSW,208,7.3,7.3,68,0.00,OVC,,0.00,WeatherDisplay:10.37,2013-08-08 17:42:00,
2013-08-08 13:47:00,80.5,69.4,30.01,West,265,5.0,5.0,69,0.00,OVC,,0.00,WeatherDisplay:10.37,2013-08-08 17:47:00,
2013-08-08 13:52:00,80.3,68.8,30.01,SW,226,8.6,8.6,68,0.00,OVC,,0.00,WeatherDisplay:10.37,2013-08-08 17:52:00,
2013-08-08 13:57:00,80.3,69.2,30.01,SSE,155,7.1,7.1,69,0.00,OVC,,0.00,WeatherDisplay:10.37,2013-08-08 17:57:00,
2013-08-08 14:02:00,80.2,69.6,30.01,NNE,13,3.5,3.5,70,0.00,SCT,,0.00,WeatherDisplay:10.37,2013-08-08 18:02:00,
2013-08-08 14:07:00,80.0,69.4,30.01,ESE,107,6.9,6.9,70,0.00,SCT,,0.00,WeatherDisplay:10.37,2013-08-08 18:07:00,
2013-08-08 14:12:00,79.7,69.5,30.01,SW,216,4.3,4.3,71,0.00,SCT,,0.00,WeatherDisplay:10.37,2013-08-08 18:12:00,
2013-08-08 14:17:00,79.5,69.7,30.02,South,169,6.9,6.9,72,0.00,SCT,,0.00,WeatherDisplay:10.37,2013-08-08 18:17:00,
2013-08-08 14:22:00,79.2,70.2,30.02,North,349,6.9,6.9,74,0.00,SCT,,0.00,WeatherDisplay:10.37,2013-08-08 18:22:00,
2013-08-08 14:27:00,78.9,70.3,30.01,ESE,117,3.5,3.5,75,0.00,SCT,,0.00,WeatherDisplay:10.37,2013-08-08 18:27:00,
2013-08-08 14:32:00,79.3,70.3,30.01,SW,219,5.0,5.0,74,0.00,SCT,,0.00,WeatherDisplay:10.37,2013-08-08 18:32:00,
2013-08-08 14:37:00,79.4,70.4,30.01,NW,308,5.7,5.7,74,0.00,SCT,,0.00,WeatherDisplay:10.37,2013-08-08 18:37:00,
2013-08-08 14:42:00,79.0,70.0,30.01,SW,234,4.6,4.6,74,0.00,SCT,,0.00,WeatherDisplay:10.37,2013-08-08 18:42:00,
2013-08-08 14:47:00,78.5,70.0,30.01,South,181,8.1,8.1,75,0.00,SCT,,0.00,WeatherDisplay:10.37,2013-08-08 18:47:00,
2013-08-08 14:52:00,78.5,70.3,30.02,South,185,7.5,7.5,76,0.00,SCT,,0.00,WeatherDisplay:10.37,2013-08-08 18:52:00,
2013-08-08 14:57:00,78.2,70.4,30.02,SE,127,2.9,2.9,77,0.00,SCT,,0.00,WeatherDisplay:10.37,2013-08-08 18:57:00,
2013-08-08 15:02:00,77.9,70.1,30.02,WNW,298,2.3,2.3,77,0.00,SCT,,0.00,WeatherDisplay:10.37,2013-08-08 19:02:00,
2013-08-08 15:07:00,77.9,70.1,30.01,South,186,3.5,3.5,77,0.00,SCT,,0.00,WeatherDisplay:10.37,2013-08-08 19:07:00,
2013-08-08 15:12:00,77.5,70.1,30.01,SSE,165,3.5,3.5,78,0.00,SCT,,0.00,WeatherDisplay:10.37,2013-08-08 19:12:00,
2013-08-08 15:18:00,77.7,70.7,30.01,South,174,3.3,3.3,79,0.00,SCT,,0.00,WeatherDisplay:10.37,2013-08-08 19:18:00,
2013-08-08 15:23:00,77.5,70.1,30.02,WSW,258,4.6,4.6,78,0.00,SCT,,0.00,WeatherDisplay:10.37,2013-08-08 19:23:00,
2013-08-08 15:28:00,77.6,70.2,30.02,WSW,241,6.7,6.7,78,0.00,SCT,,0.00,WeatherDisplay:10.37,2013-08-08 19:28:00,
2013-08-08 15:33:00,77.3,70.3,30.02,NNW,337,4.6,4.6,79,0.00,SCT,,0.00,WeatherDisplay:10.37,2013-08-08 19:33:00,
2013-08-08 15:38:00,77.2,69.8,30.02,South,185,8.1,8.1,78,0.00,SCT,,0.00,WeatherDisplay:10.37,2013-08-08 19:38:00,
2013-08-08 15:43:00,77.0,70.0,30.02,WSW,244,5.8,5.8,79,0.00,SCT,,0.00,WeatherDisplay:10.37,2013-08-08 19:43:00,
2013-08-08 15:48:00,77.2,70.2,30.01,WSW,239,3.5,3.5,79,0.00,SCT,,0.00,WeatherDisplay:10.37,2013-08-08 19:48:00,
2013-08-08 15:53:00,77.1,70.5,30.01,South,182,2.3,2.3,80,0.00,SCT,,0.00,WeatherDisplay:10.37,2013-08-08 19:53:00,
2013-08-08 15:58:00,77.2,70.6,30.01,WNW,287,3.5,3.5,80,0.00,SCT,,0.00,WeatherDisplay:10.37,2013-08-08 19:58:00,
2013-08-08 16:03:00,77.2,70.2,30.00,SSW,206,3.5,3.5,79,0.00,BKN,,0.00,WeatherDisplay:10.37,2013-08-08 20:03:00,
2013-08-08 16:08:00,77.2,70.2,30.00,South,185,2.3,2.3,79,0.00,BKN,,0.00,WeatherDisplay:10.37,2013-08-08 20:08:00,
2013-08-08 16:13:00,77.3,70.3,30.00,SSE,154,3.5,3.5,79,0.00,BKN,,0.00,WeatherDisplay:10.37,2013-08-08 20:13:00,
2013-08-08 16:18:00,77.4,70.8,30.00,South,174,1.2,1.2,80,0.00,BKN,,0.00,WeatherDisplay:10.37,2013-08-08 20:18:00,
2013-08-08 16:23:00,77.6,70.6,30.00,SW,222,3.6,3.6,79,0.00,BKN,,0.00,WeatherDisplay:10.37,2013-08-08 20:23:00,
2013-08-08 16:28:00,77.8,70.4,30.00,SE,130,2.3,2.3,78,0.00,BKN,,0.00,WeatherDisplay:10.37,2013-08-08 20:28:00,
2013-08-08 16:33:00,78.4,71.0,30.00,ESE,114,3.3,3.3,78,0.00,BKN,,0.00,WeatherDisplay:10.37,2013-08-08 20:33:00,
2013-08-08 16:38:00,78.8,71.0,30.00,SE,131,3.5,3.5,77,0.00,BKN,,0.00,WeatherDisplay:10.37,2013-08-08 20:38:00,
2013-08-08 16:43:00,78.9,71.1,29.99,NNE,16,5.8,5.8,77,0.00,BKN,,0.00,WeatherDisplay:10.37,2013-08-08 20:43:00,
2013-08-08 16:48:00,79.0,70.8,29.99,ENE,61,2.3,2.3,76,0.00,BKN,,0.00,WeatherDisplay:10.37,2013-08-08 20:48:00,
2013-08-08 16:53:00,79.3,71.1,30.00,SSE,157,2.4,2.4,76,0.00,BKN,,0.00,WeatherDisplay:10.37,2013-08-08 20:53:00,
2013-08-08 16:58:00,78.8,70.6,29.99,SSE,164,1.2,1.2,76,0.00,BKN,,0.00,WeatherDisplay:10.37,2013-08-08 20:58:00,
2013-08-08 17:03:00,79.2,71.0,29.99,SW,229,5.8,5.8,76,0.00,BKN,,0.00,WeatherDisplay:10.37,2013-08-08 21:03:00,
2013-08-08 17:08:00,78.7,70.9,29.99,SSE,162,6.7,6.7,77,0.00,BKN,,0.00,WeatherDisplay:10.37,2013-08-08 21:08:00,
2013-08-08 17:13:00,78.6,70.8,29.99,SW,220,6.0,6.0,77,0.00,BKN,,0.00,WeatherDisplay:10.37,2013-08-08 21:13:00,
2013-08-08 17:19:00,78.4,70.6,29.99,ENE,62,4.6,4.6,77,0.00,BKN,,0.00,WeatherDisplay:10.37,2013-08-08 21:19:00,
2013-08-08 17:24:00,78.6,71.2,29.99,South,182,5.8,5.8,78,0.00,BKN,,0.00,WeatherDisplay:10.37,2013-08-08 21:24:00,
2013-08-08 17:29:00,78.0,70.6,29.99,South,189,6.0,6.0,78,0.00,BKN,,0.00,WeatherDisplay:10.37,2013-08-08 21:29:00,
2013-08-08 17:34:00,78.2,71.2,29.99,SSW,192,5.3,5.3,79,0.00,BKN,,0.00,WeatherDisplay:10.37,2013-08-08 21:34:00,
2013-08-08 17:39:00,78.2,71.2,29.99,South,179,5.8,5.8,79,0.00,BKN,,0.00,WeatherDisplay:10.37,2013-08-08 21:39:00,
2013-08-08 17:44:00,78.4,71.4,29.99,SE,133,3.5,3.5,79,0.00,BKN,,0.00,WeatherDisplay:10.37,2013-08-08 21:44:00,
2013-08-08 17:50:00,78.3,70.9,29.99,SW,227,5.2,5.2,78,0.00,BKN,,0.00,WeatherDisplay:10.37,2013-08-08 21:50:00,
2013-08-08 17:56:00,78.0,71.0,30.00,South,189,8.1,8.1,79,0.00,BKN,,0.00,WeatherDisplay:10.37,2013-08-08 21:56:00,
2013-08-08 18:01:00,77.6,70.6,29.99,SSW,205,8.1,8.1,79,0.00,BKN,,0.00,WeatherDisplay:10.37,2013-08-08 22:01:00,
2013-08-08 18:06:00,77.4,70.8,29.99,ESE,109,3.5,3.5,80,0.00,-RA,,0.00,WeatherDisplay:10.37,2013-08-08 22:06:00,
2013-08-08 18:11:00,77.4,71.1,29.99,SE,126,9.2,9.2,81,0.00,-RA,,0.00,WeatherDisplay:10.37,2013-08-08 22:11:00,
2013-08-08 18:16:00,77.2,71.0,29.99,SSW,196,8.1,8.1,81,0.00,-RA,,0.00,WeatherDisplay:10.37,2013-08-08 22:16:00,
2013-08-08 18:22:00,77.0,71.1,29.99,SSE,155,11.5,11.5,82,0.00,-RA,,0.00,WeatherDisplay:10.37,2013-08-08 22:22:00,
2013-08-08 18:27:00,76.7,70.8,29.99,NNE,20,10.4,10.4,82,0.00,-RA,,0.00,WeatherDisplay:10.37,2013-08-08 22:27:00,
2013-08-08 18:32:00,76.4,70.9,29.99,South,182,9.6,9.6,83,0.00,BKN,,0.00,WeatherDisplay:10.37,2013-08-08 22:32:00,
2013-08-08 18:37:00,76.3,71.1,30.00,NNW,330,9.3,9.3,84,0.00,BKN,,0.00,WeatherDisplay:10.37,2013-08-08 22:37:00,
2013-08-08 18:42:00,75.9,70.8,29.99,SW,217,9.4,9.4,84,0.00,BKN,,0.00,WeatherDisplay:10.37,2013-08-08 22:42:00,
2013-08-08 18:47:00,75.9,70.8,30.00,SW,222,6.2,6.2,84,0.00,BKN,,0.00,WeatherDisplay:10.37,2013-08-08 22:47:00,
2013-08-08 18:52:00,75.8,71.0,30.00,SSE,162,5.6,5.6,85,0.00,BKN,,0.00,WeatherDisplay:10.37,2013-08-08 22:52:00,
2013-08-08 18:57:00,75.9,71.1,30.00,SW,217,2.7,2.7,85,0.00,BKN,,0.00,WeatherDisplay:10.37,2013-08-08 22:57:00,
2013-08-08 19:02:00,75.7,70.6,30.00,South,178,3.5,3.5,84,0.00,CLR,,0.00,WeatherDisplay:10.37,2013-08-08 23:02:00,
2013-08-08 19:07:00,75.6,70.8,30.00,SW,220,7.1,7.1,85,0.00,CLR,,0.00,WeatherDisplay:10.37,2013-08-08 23:07:00,
2013-08-08 19:12:00,75.4,70.6,30.00,South,182,9.2,9.2,85,0.00,CLR,,0.00,WeatherDisplay:10.37,2013-08-08 23:12:00,
2013-08-08 19:17:00,75.3,70.2,30.00,SSW,198,8.1,8.1,84,0.00,CLR,,0.00,WeatherDisplay:10.37,2013-08-08 23:17:00,
2013-08-08 19:23:00,75.3,70.5,30.00,SSE,165,2.3,2.3,85,0.00,CLR,,0.00,WeatherDisplay:10.37,2013-08-08 23:23:00,
2013-08-08 19:28:00,75.2,70.4,30.00,SSE,160,1.0,5.0,85,0.00,CLR,,0.00,WeatherDisplay:10.37,2013-08-08 23:28:00,
2013-08-08 19:34:00,75.1,70.3,30.00,West,274,9.2,9.2,85,0.00,CLR,,0.00,WeatherDisplay:10.37,2013-08-08 23:34:00,
2013-08-08 19:39:00,75.1,70.3,30.01,East,93,0.0,0.0,85,0.00,CLR,,0.00,WeatherDisplay:10.37,2013-08-08 23:39:00,
2013-08-08 19:44:00,75.0,70.2,30.01,WSW,243,6.0,6.0,85,0.00,CLR,,0.00,WeatherDisplay:10.37,2013-08-08 23:44:00,
2013-08-08 19:49:00,75.1,70.3,30.01,SSW,192,3.5,3.5,85,0.00,CLR,,0.00,WeatherDisplay:10.37,2013-08-08 23:49:00,
2013-08-08 19:55:00,74.9,70.1,30.01,SW,232,2.8,2.8,85,0.00,CLR,,0.00,WeatherDisplay:10.37,2013-08-08 23:55:00,
2013-08-08 20:00:00,74.8,70.0,30.01,SW,226,3.5,3.5,85,0.00,CLR,,0.00,WeatherDisplay:10.37,2013-08-09 00:00:00,
2013-08-08 20:05:00,74.7,69.9,30.01,West,278,2.3,2.3,85,0.00,BKN,,0.00,WeatherDisplay:10.37,2013-08-09 00:05:00,
2013-08-08 20:10:00,74.5,69.7,30.02,West,265,10.4,10.4,85,0.00,BKN,,0.00,WeatherDisplay:10.37,2013-08-09 00:10:00,
2013-08-08 20:16:00,74.6,70.2,30.02,SSE,154,0.0,0.0,86,0.00,BKN,,0.00,WeatherDisplay:10.37,2013-08-09 00:16:00,
2013-08-08 20:21:00,74.6,69.8,30.01,WSW,248,3.5,3.5,85,0.00,BKN,,0.00,WeatherDisplay:10.37,2013-08-09 00:21:00,
2013-08-08 20:27:00,74.3,69.5,30.02,WSW,250,6.9,6.9,85,0.00,BKN,,0.00,WeatherDisplay:10.37,2013-08-09 00:27:00,
2013-08-08 20:32:00,74.2,69.8,30.02,West,277,5.9,5.9,86,0.00,BKN,,0.00,WeatherDisplay:10.37,2013-08-09 00:32:00,
2013-08-08 20:37:00,74.2,69.8,30.03,NW,313,3.9,3.9,86,0.00,BKN,,0.00,WeatherDisplay:10.37,2013-08-09 00:37:00,
2013-08-08 20:42:00,74.3,69.9,30.02,SSW,192,4.1,4.1,86,0.00,BKN,,0.00,WeatherDisplay:10.37,2013-08-09 00:42:00,
2013-08-08 20:48:00,74.2,69.8,30.02,South,181,3.9,3.9,86,0.00,BKN,,0.00,WeatherDisplay:10.37,2013-08-09 00:48:00,
2013-08-08 20:53:00,74.0,69.6,30.03,SW,216,5.8,5.8,86,0.00,BKN,,0.00,WeatherDisplay:10.37,2013-08-09 00:53:00,
2013-08-08 20:58:00,73.9,69.5,30.03,SSW,195,4.6,4.6,86,0.00,BKN,,0.00,WeatherDisplay:10.37,2013-08-09 00:58:00,
2013-08-08 21:04:00,74.0,69.6,30.03,SSW,210,6.9,6.9,86,0.00,SCT,,0.00,WeatherDisplay:10.37,2013-08-09 01:04:00,
2013-08-08 21:09:00,73.8,69.4,30.03,SSW,203,2.2,2.2,86,0.00,SCT,,0.00,WeatherDisplay:10.37,2013-08-09 01:09:00,
2013-08-08 21:14:00,73.7,69.6,30.03,SSW,203,5.5,5.5,87,0.00,SCT,,0.00,WeatherDisplay:10.37,2013-08-09 01:14:00,
2013-08-08 21:19:00,73.5,69.1,30.03,SSE,162,5.8,5.8,86,0.00,SCT,,0.00,WeatherDisplay:10.37,2013-08-09 01:19:00,
2013-08-08 21:24:00,73.5,69.4,30.03,SW,216,4.7,4.7,87,0.00,SCT,,0.00,WeatherDisplay:10.37,2013-08-09 01:24:00,
2013-08-08 21:29:00,73.4,69.3,30.03,SE,145,3.6,3.6,87,0.00,SCT,,0.00,WeatherDisplay:10.37,2013-08-09 01:29:00,
2013-08-08 21:34:00,73.2,69.1,30.03,West,272,3.5,3.5,87,0.00,SCT,,0.00,WeatherDisplay:10.37,2013-08-09 01:34:00,
2013-08-08 21:39:00,73.2,69.1,30.03,North,1,2.3,2.3,87,0.00,SCT,,0.00,WeatherDisplay:10.37,2013-08-09 01:39:00,
2013-08-08 21:44:00,73.1,68.7,30.03,WSW,250,3.5,3.5,86,0.00,SCT,,0.00,WeatherDisplay:10.37,2013-08-09 01:44:00,
2013-08-08 21:49:00,73.3,68.9,30.03,South,174,6.9,6.9,86,0.00,SCT,,0.00,WeatherDisplay:10.37,2013-08-09 01:49:00,
2013-08-08 21:54:00,73.1,68.7,30.03,SSE,158,3.5,3.5,86,0.00,SCT,,0.00,WeatherDisplay:10.37,2013-08-09 01:54:00,
2013-08-08 21:59:00,73.1,68.7,30.03,SSW,209,5.1,5.1,86,0.00,SCT,,0.00,WeatherDisplay:10.37,2013-08-09 01:59:00,
2013-08-08 22:04:00,72.9,68.5,30.03,SSW,200,3.5,3.5,86,0.00,CLR,,0.00,WeatherDisplay:10.37,2013-08-09 02:04:00,
2013-08-08 22:09:00,73.0,68.6,30.03,South,174,8.1,8.1,86,0.00,CLR,,0.00,WeatherDisplay:10.37,2013-08-09 02:09:00,
2013-08-08 22:15:00,72.9,68.5,30.03,SSW,192,5.9,5.9,86,0.00,CLR,,0.00,WeatherDisplay:10.37,2013-08-09 02:15:00,
2013-08-08 22:20:00,72.9,68.5,30.03,WSW,237,4.6,4.6,86,0.00,CLR,,0.00,WeatherDisplay:10.37,2013-08-09 02:20:00,
2013-08-08 22:25:00,72.8,68.7,30.02,WSW,253,6.9,6.9,87,0.00,CLR,,0.00,WeatherDisplay:10.37,2013-08-09 02:25:00,
2013-08-08 22:30:00,72.7,68.6,30.01,SSE,154,4.6,4.6,87,0.00,CLR,,0.00,WeatherDisplay:10.37,2013-08-09 02:30:00,
2013-08-08 22:35:00,72.7,68.6,30.02,ESE,113,4.9,4.9,87,0.00,CLR,,0.00,WeatherDisplay:10.37,2013-08-09 02:35:00,
2013-08-08 22:40:00,72.5,68.4,30.01,SE,124,6.2,6.2,87,0.00,CLR,,0.00,WeatherDisplay:10.37,2013-08-09 02:40:00,
2013-08-08 22:45:00,72.7,68.6,30.01,SE,137,1.2,1.2,87,0.00,CLR,,0.00,WeatherDisplay:10.37,2013-08-09 02:45:00,
2013-08-08 22:51:00,72.6,68.9,30.01,SW,234,5.8,5.8,88,0.00,CLR,,0.00,WeatherDisplay:10.37,2013-08-09 02:51:00,
2013-08-08 22:56:00,72.6,68.9,30.02,SW,224,7.5,7.5,88,0.00,CLR,,0.00,WeatherDisplay:10.37,2013-08-09 02:56:00,
2013-08-08 23:02:00,72.6,68.9,30.02,SSE,161,3.5,3.5,88,0.00,BKN,,0.00,WeatherDisplay:10.37,2013-08-09 03:02:00,
2013-08-08 23:08:00,72.5,68.8,30.02,North,350,8.1,8.1,88,0.00,BKN,,0.00,WeatherDisplay:10.37,2013-08-09 03:08:00,
2013-08-08 23:13:00,72.6,68.8,30.02,WSW,247,1.0,7.0,88,0.00,BKN,,0.00,WeatherDisplay:10.37,2013-08-09 03:13:00,
2013-08-08 23:19:00,72.5,68.8,30.02,SSE,160,1.2,1.2,88,0.00,BKN,,0.00,WeatherDisplay:10.37,2013-08-09 03:19:00,
2013-08-08 23:25:00,72.7,69.0,30.02,South,172,0.0,0.0,88,0.00,BKN,,0.00,WeatherDisplay:10.37,2013-08-09 03:25:00,
2013-08-08 23:31:00,72.5,68.8,30.02,West,275,5.0,5.0,88,0.00,BKN,,0.00,WeatherDisplay:10.37,2013-08-09 03:31:00,
2013-08-08 23:37:00,72.6,68.9,30.02,South,185,6.0,6.0,88,0.00,FEW,,0.00,WeatherDisplay:10.37,2013-08-09 03:37:00,
2013-08-08 23:42:00,72.7,69.0,30.02,SSE,167,4.5,4.5,88,0.00,FEW,,0.00,WeatherDisplay:10.37,2013-08-09 03:42:00,
2013-08-08 23:48:00,72.8,69.4,30.02,South,178,5.7,5.7,89,0.00,FEW,,0.00,WeatherDisplay:10.37,2013-08-09 03:48:00,
2013-08-08 23:53:00,72.7,69.3,30.02,SSW,194,1.0,5.0,89,0.00,FEW,,0.00,WeatherDisplay:10.37,2013-08-09 03:53:00,
2013-08-08 23:58:00,72.7,69.3,30.02,South,189,0.0,5.0,89,0.00,FEW,,0.00,WeatherDisplay:10.37,2013-08-09 03:58:00,